| time (UTC) | temp C | wind direction | speed KPH | gust KPH | rain 1hr cm | rain 24hr cm | rain mn cm | humidity % | barometer mb |
| 20260504060126 | 11 | 342 | 1.6 | 3.2 | 0.00 | 0.00 | 0.00 | 46 | 1012.9 |
| 20260504050554 | 11 | 43 | 0.0 | 3.2 | 0.00 | 0.00 | 0.00 | 45 | 1012.8 |
| 20260504045548 | 11 | 75 | 0.0 | 0.0 | 0.00 | 0.00 | 0.00 | 44 | 1012.6 |
| 20260504045043 | 12 | 344 | 1.6 | 3.2 | 0.00 | 0.00 | 0.00 | 43 | 1012.7 |
| 20260504044541 | 12 | 201 | 1.6 | 3.2 | 0.00 | 0.00 | 0.00 | 43 | 1012.7 |
| 20260504044038 | 12 | 97 | 0.0 | 3.2 | 0.00 | 0.00 | 0.00 | 44 | 1012.5 |
| 20260504043535 | 12 | 350 | 0.0 | 0.0 | 0.00 | 0.00 | 0.00 | 44 | 1012.6 |
| 20260504043032 | 12 | 97 | 0.0 | 3.2 | 0.00 | 0.00 | 0.00 | 44 | 1012.5 |
| 20260504042529 | 12 | 84 | 0.0 | 0.0 | 0.00 | 0.00 | 0.00 | 43 | 1012.6 |
| 20260504042026 | 12 | 183 | 0.0 | 0.0 | 0.00 | 0.00 | 0.00 | 43 | 1012.4 |
| 20260504041522 | 12 | 281 | 3.2 | 4.8 | 0.00 | 0.00 | 0.00 | 43 | 1012.5 |
| 20260504041018 | 12 | 272 | 1.6 | 4.8 | 0.00 | 0.00 | 0.00 | 43 | 1012.3 |
| 20260504040516 | 12 | 85 | 0.0 | 0.0 | 0.00 | 0.00 | 0.00 | 42 | 1012.3 |
| 20260504040012 | 12 | 78 | 0.0 | 0.0 | 0.00 | 0.00 | 0.00 | 42 | 1012.4 |
| 20260504035509 | 12 | 64 | 0.0 | 0.0 | 0.00 | 0.00 | 0.00 | 42 | 1012.3 |
| 20260504035005 | 12 | 245 | 1.6 | 3.2 | 0.00 | 0.00 | 0.00 | 41 | 1012.3 |
| 20260504034503 | 12 | 113 | 0.0 | 3.2 | 0.00 | 0.00 | 0.00 | 41 | 1012.4 |
| 20260504034000 | 12 | 88 | 0.0 | 0.0 | 0.00 | 0.00 | 0.00 | 41 | 1012.5 |
| 20260504033458 | 12 | 265 | 0.0 | 3.2 | 0.00 | 0.00 | 0.00 | 41 | 1012.3 |
| 20260504032955 | 12 | 268 | 1.6 | 3.2 | 0.00 | 0.00 | 0.00 | 40 | 1012.4 |
| 20260504032452 | 12 | 80 | 0.0 | 0.0 | 0.00 | 0.00 | 0.00 | 40 | 1012.1 |
| 20260504031948 | 12 | 51 | 0.0 | 0.0 | 0.00 | 0.00 | 0.00 | 40 | 1012.4 |
| 20260504031445 | 12 | 65 | 0.0 | 0.0 | 0.00 | 0.00 | 0.00 | 40 | 1012.1 |
| 20260504030942 | 12 | 18 | 1.6 | 3.2 | 0.00 | 0.00 | 0.00 | 40 | 1012.3 |
| 20260504030439 | 12 | 97 | 0.0 | 0.0 | 0.00 | 0.00 | 0.00 | 40 | 1012.3 |
| 20260504025935 | 12 | 41 | 0.0 | 3.2 | 0.00 | 0.00 | 0.00 | 39 | 1012.1 |
| 20260504025432 | 12 | 115 | 0.0 | 3.2 | 0.00 | 0.00 | 0.00 | 39 | 1012.0 |
| 20260504024929 | 12 | 261 | 1.6 | 3.2 | 0.00 | 0.00 | 0.00 | 38 | 1012.4 |
| 20260504024426 | 12 | 87 | 0.0 | 0.0 | 0.00 | 0.00 | 0.00 | 38 | 1012.3 |
| 20260504023923 | 12 | 276 | 0.0 | 3.2 | 0.00 | 0.00 | 0.00 | 37 | 1012.2 |
| 20260504023419 | 12 | 82 | 0.0 | 0.0 | 0.00 | 0.00 | 0.00 | 37 | 1012.2 |
| 20260504022915 | 12 | 66 | 0.0 | 0.0 | 0.00 | 0.00 | 0.00 | 37 | 1012.2 |
| 20260504022412 | 12 | 62 | 0.0 | 0.0 | 0.00 | 0.00 | 0.00 | 37 | 1012.1 |
| 20260504021908 | 12 | 75 | 0.0 | 0.0 | 0.00 | 0.00 | 0.00 | 37 | 1012.2 |
| 20260504021406 | 12 | 58 | 0.0 | 0.0 | 0.00 | 0.00 | 0.00 | 37 | 1012.1 |
| 20260504020903 | 12 | 67 | 0.0 | 0.0 | 0.00 | 0.00 | 0.00 | 37 | 1012.4 |
| 20260504020359 | 12 | 61 | 0.0 | 0.0 | 0.00 | 0.00 | 0.00 | 37 | 1012.1 |
| 20260504015855 | 12 | 66 | 0.0 | 0.0 | 0.00 | 0.00 | 0.00 | 36 | 1012.2 |
| 20260504015352 | 12 | 67 | 0.0 | 0.0 | 0.00 | 0.00 | 0.00 | 36 | 1012.1 |
| 20260504014848 | 12 | 70 | 0.0 | 0.0 | 0.00 | 0.00 | 0.00 | 36 | 1012.1 |
| 20260504014344 | 12 | 70 | 0.0 | 0.0 | 0.00 | 0.00 | 0.00 | 35 | 1012.2 |
| 20260504013842 | 12 | 76 | 0.0 | 0.0 | 0.00 | 0.00 | 0.00 | 36 | 1012.1 |
| 20260504013339 | 12 | 73 | 0.0 | 0.0 | 0.00 | 0.00 | 0.00 | 36 | 1011.9 |
| 20260504012836 | 12 | 92 | 0.0 | 0.0 | 0.00 | 0.00 | 0.00 | 35 | 1011.9 |
| 20260504012334 | 13 | 58 | 0.0 | 0.0 | 0.00 | 0.00 | 0.00 | 35 | 1011.9 |
| 20260504011831 | 13 | 57 | 0.0 | 0.0 | 0.00 | 0.00 | 0.00 | 34 | 1011.8 |
| 20260504011327 | 13 | 68 | 0.0 | 0.0 | 0.00 | 0.00 | 0.00 | 33 | 1011.7 |
| 20260504010823 | 13 | 75 | 0.0 | 0.0 | 0.00 | 0.00 | 0.00 | 33 | 1011.6 |
| 20260504010319 | 13 | 11 | 0.0 | 3.2 | 0.00 | 0.00 | 0.00 | 33 | 1011.7 |
| 20260504005816 | 13 | 84 | 0.0 | 0.0 | 0.00 | 0.00 | 0.00 | 33 | 1011.4 |
| 20260504005313 | 14 | 78 | 0.0 | 0.0 | 0.00 | 0.00 | 0.00 | 32 | 1011.4 |
| 20260504004810 | 14 | 96 | 0.0 | 0.0 | 0.00 | 0.00 | 0.00 | 31 | 1011.5 |
| 20260504004308 | 14 | 46 | 1.6 | 3.2 | 0.00 | 0.00 | 0.00 | 31 | 1011.4 |
| 20260504003804 | 14 | 92 | 0.0 | 0.0 | 0.00 | 0.00 | 0.00 | 30 | 1011.5 |
| 20260504003301 | 14 | 52 | 0.0 | 0.0 | 0.00 | 0.00 | 0.00 | 30 | 1011.2 |
| 20260504002757 | 14 | 72 | 0.0 | 0.0 | 0.00 | 0.00 | 0.00 | 29 | 1011.1 |
| 20260504002255 | 14 | 84 | 0.0 | 0.0 | 0.00 | 0.00 | 0.00 | 29 | 1011.0 |
| 20260504001752 | 15 | 85 | 0.0 | 0.0 | 0.00 | 0.00 | 0.00 | 28 | 1011.0 |
| 20260504001249 | 15 | 43 | 1.6 | 3.2 | 0.00 | 0.00 | 0.00 | 28 | 1010.9 |
| 20260504000746 | 15 | 68 | 0.0 | 0.0 | 0.00 | 0.00 | 0.00 | 27 | 1010.8 |
| 20260504000243 | 15 | 64 | 0.0 | 0.0 | 0.00 | 0.00 | 0.00 | 27 | 1010.7 |
| 20260503235741 | 15 | 35 | 0.0 | 0.0 | 0.00 | 0.00 | 0.00 | 27 | 1010.7 |
| 20260503235238 | 15 | 345 | 0.0 | 3.2 | 0.00 | 0.00 | 0.00 | 27 | 1010.7 |
| 20260503234735 | 15 | 51 | 0.0 | 3.2 | 0.00 | 0.00 | 0.00 | 27 | 1010.8 |
| 20260503234233 | 15 | 8 | 3.2 | 4.8 | 0.00 | 0.00 | 0.00 | 26 | 1010.3 |
| 20260503233730 | 15 | 7 | 3.2 | 3.2 | 0.00 | 0.00 | 0.00 | 26 | 1010.5 |
| 20260503233226 | 15 | 9 | 3.2 | 4.8 | 0.00 | 0.00 | 0.00 | 26 | 1010.8 |
| 20260503232723 | 15 | 271 | 3.2 | 4.8 | 0.00 | 0.00 | 0.00 | 26 | 1010.5 |
| 20260503232220 | 15 | 17 | 3.2 | 4.8 | 0.00 | 0.00 | 0.00 | 25 | 1010.2 |
| 20260503231719 | 15 | 274 | 4.8 | 4.8 | 0.00 | 0.00 | 0.00 | 25 | 1010.2 |
| 20260503231215 | 15 | 304 | 3.2 | 4.8 | 0.00 | 0.00 | 0.00 | 25 | 1010.1 |
| 20260503230711 | 15 | 335 | 4.8 | 4.8 | 0.00 | 0.00 | 0.00 | 25 | 1010.5 |
| 20260503230208 | 15 | 96 | 1.6 | 3.2 | 0.00 | 0.00 | 0.00 | 25 | 1010.1 |
| 20260503225705 | 15 | 0 | 6.4 | 8.0 | 0.00 | 0.00 | 0.00 | 24 | 1010.3 |
| 20260503225200 | 15 | 96 | 8.0 | 11.3 | 0.00 | 0.00 | 0.00 | 24 | 1010.4 |
| 20260503224658 | 15 | 90 | 1.6 | 4.8 | 0.00 | 0.00 | 0.00 | 24 | 1010.2 |
| 20260503224155 | 15 | 313 | 4.8 | 4.8 | 0.00 | 0.00 | 0.00 | 24 | 1010.3 |
| 20260503223653 | 15 | 73 | 4.8 | 8.0 | 0.00 | 0.00 | 0.00 | 24 | 1010.1 |
| 20260503223149 | 15 | 277 | 4.8 | 4.8 | 0.00 | 0.00 | 0.00 | 24 | 1010.2 |
| 20260503222646 | 15 | 2 | 4.8 | 8.0 | 0.00 | 0.00 | 0.00 | 24 | 1010.0 |
| 20260503222144 | 15 | 261 | 4.8 | 4.8 | 0.00 | 0.00 | 0.00 | 23 | 1010.1 |
| 20260503221643 | 15 | 286 | 8.0 | 11.3 | 0.00 | 0.00 | 0.00 | 24 | 1010.0 |
| 20260503221139 | 15 | 300 | 8.0 | 8.0 | 0.00 | 0.00 | 0.00 | 23 | 1010.1 |
| 20260503220636 | 15 | 270 | 8.0 | 27.4 | 0.00 | 0.00 | 0.00 | 24 | 1010.1 |
| 20260503220132 | 15 | 11 | 11.3 | 14.5 | 0.00 | 0.00 | 0.00 | 23 | 1010.3 |
| 20260503215624 | 15 | 356 | 6.4 | 8.0 | 0.00 | 0.00 | 0.00 | 24 | 1010.2 |
| 20260503215120 | 16 | 28 | 4.8 | 8.0 | 0.00 | 0.00 | 0.00 | 24 | 1010.1 |
| 20260503214619 | 16 | 250 | 4.8 | 8.0 | 0.00 | 0.00 | 0.00 | 24 | 1010.0 |
| 20260503214114 | 16 | 66 | 6.4 | 8.0 | 0.00 | 0.00 | 0.00 | 24 | 1010.0 |
| 20260503213609 | 16 | 261 | 8.0 | 8.0 | 0.00 | 0.00 | 0.00 | 24 | 1009.9 |
| 20260503213104 | 16 | 79 | 4.8 | 8.0 | 0.00 | 0.00 | 0.00 | 24 | 1010.1 |
| 20260503212602 | 16 | 93 | 1.6 | 3.2 | 0.00 | 0.00 | 0.00 | 24 | 1009.9 |
| 20260503212059 | 16 | 355 | 8.0 | 11.3 | 0.00 | 0.00 | 0.00 | 23 | 1010.1 |
| 20260503211556 | 16 | 12 | 1.6 | 3.2 | 0.00 | 0.00 | 0.00 | 24 | 1010.0 |
| 20260503211052 | 16 | 32 | 4.8 | 4.8 | 0.00 | 0.00 | 0.00 | 24 | 1009.9 |
| 20260503210549 | 16 | 40 | 4.8 | 8.0 | 0.00 | 0.00 | 0.00 | 24 | 1009.9 |
| 20260503210044 | 16 | 265 | 4.8 | 8.0 | 0.00 | 0.00 | 0.00 | 24 | 1010.0 |
| 20260503205541 | 15 | 218 | 8.0 | 11.3 | 0.00 | 0.00 | 0.00 | 24 | 1010.1 |
| 20260503205038 | 16 | 289 | 6.4 | 8.0 | 0.00 | 0.00 | 0.00 | 24 | 1009.9 |
| 20260503204535 | 16 | 180 | 4.8 | 4.8 | 0.00 | 0.00 | 0.00 | 24 | 1009.9 |
| 20260503204032 | 16 | 293 | 8.0 | 14.5 | 0.00 | 0.00 | 0.00 | 24 | 1009.8 |
| 20260503203529 | 16 | 328 | 8.0 | 14.5 | 0.00 | 0.00 | 0.00 | 24 | 1010.0 |
| 20260503203026 | 16 | 272 | 4.8 | 4.8 | 0.00 | 0.00 | 0.00 | 24 | 1010.0 |
| 20260503202524 | 16 | 248 | 1.6 | 3.2 | 0.00 | 0.00 | 0.00 | 24 | 1010.0 |
| 20260503202022 | 16 | 33 | 6.4 | 8.0 | 0.00 | 0.00 | 0.00 | 24 | 1010.0 |
| 20260503201520 | 16 | 330 | 8.0 | 11.3 | 0.00 | 0.00 | 0.00 | 25 | 1010.1 |
| 20260503201017 | 16 | 236 | 8.0 | 11.3 | 0.00 | 0.00 | 0.00 | 24 | 1010.2 |
| 20260503200513 | 15 | 261 | 4.8 | 8.0 | 0.00 | 0.00 | 0.00 | 25 | 1010.3 |
| 20260503200010 | 15 | 356 | 9.7 | 19.3 | 0.00 | 0.00 | 0.00 | 26 | 1010.2 |
| 20260503195507 | 14 | 294 | 8.0 | 8.0 | 0.00 | 0.00 | 0.00 | 27 | 1010.1 |
| 20260503195003 | 15 | 25 | 4.8 | 8.0 | 0.00 | 0.00 | 0.00 | 26 | 1010.2 |
| 20260503194501 | 16 | 290 | 9.7 | 14.5 | 0.00 | 0.00 | 0.00 | 25 | 1010.4 |
| 20260503193955 | 15 | 217 | 4.8 | 4.8 | 0.00 | 0.00 | 0.00 | 26 | 1010.2 |
| 20260503193451 | 15 | 297 | 6.4 | 8.0 | 0.00 | 0.00 | 0.00 | 26 | 1010.4 |
| 20260503192947 | 15 | 295 | 8.0 | 11.3 | 0.00 | 0.00 | 0.00 | 26 | 1010.6 |
| 20260503192443 | 15 | 298 | 6.4 | 8.0 | 0.00 | 0.00 | 0.00 | 26 | 1010.4 |
| 20260503191939 | 15 | 267 | 8.0 | 14.5 | 0.00 | 0.00 | 0.00 | 26 | 1010.5 |
| 20260503191437 | 15 | 333 | 6.4 | 8.0 | 0.00 | 0.00 | 0.00 | 26 | 1010.2 |
| 20260503190933 | 15 | 269 | 8.0 | 11.3 | 0.00 | 0.00 | 0.00 | 27 | 1010.5 |
| 20260503190431 | 16 | 342 | 8.0 | 11.3 | 0.00 | 0.00 | 0.00 | 27 | 1010.6 |
| 20260503185927 | 16 | 27 | 0.0 | 0.0 | 0.00 | 0.00 | 0.00 | 27 | 1010.7 |
| 20260503185424 | 15 | 327 | 3.2 | 3.2 | 0.00 | 0.00 | 0.00 | 27 | 1010.6 |
| 20260503184923 | 15 | 28 | 4.8 | 4.8 | 0.00 | 0.00 | 0.00 | 28 | 1010.8 |
| 20260503184420 | 15 | 61 | 6.4 | 8.0 | 0.00 | 0.00 | 0.00 | 28 | 1010.6 |
| 20260503183916 | 15 | 352 | 3.2 | 4.8 | 0.00 | 0.00 | 0.00 | 29 | 1011.0 |
| 20260503183412 | 15 | 94 | 8.0 | 14.5 | 0.00 | 0.00 | 0.00 | 30 | 1011.1 |
| 20260503182910 | 15 | 291 | 8.0 | 8.0 | 0.00 | 0.00 | 0.00 | 30 | 1011.1 |
| 20260503182409 | 15 | 346 | 9.7 | 11.3 | 0.00 | 0.00 | 0.00 | 29 | 1010.9 |
| 20260503181906 | 15 | 319 | 6.4 | 8.0 | 0.00 | 0.00 | 0.00 | 29 | 1011.0 |
| 20260503181403 | 14 | 303 | 6.4 | 8.0 | 0.00 | 0.00 | 0.00 | 29 | 1011.0 |
| 20260503180859 | 13 | 323 | 8.0 | 14.5 | 0.00 | 0.00 | 0.00 | 31 | 1011.1 |
| 20260503180357 | 14 | 21 | 8.0 | 11.3 | 0.00 | 0.00 | 0.00 | 31 | 1011.0 |
| 20260503175853 | 13 | 279 | 4.8 | 11.3 | 0.00 | 0.00 | 0.00 | 29 | 1011.0 |
| 20260503175351 | 13 | 348 | 4.8 | 11.3 | 0.00 | 0.00 | 0.00 | 31 | 1010.8 |
| 20260503174847 | 13 | 352 | 11.3 | 14.5 | 0.00 | 0.00 | 0.00 | 31 | 1011.2 |
| 20260503174345 | 14 | 175 | 14.5 | 16.1 | 0.00 | 0.00 | 0.00 | 30 | 1011.0 |
| 20260503173839 | 14 | 295 | 6.4 | 8.0 | 0.00 | 0.00 | 0.00 | 30 | 1010.9 |
| 20260503173336 | 13 | 255 | 4.8 | 8.0 | 0.00 | 0.00 | 0.00 | 32 | 1010.7 |
| 20260503172833 | 13 | 57 | 6.4 | 8.0 | 0.00 | 0.00 | 0.00 | 31 | 1010.8 |
| 20260503172331 | 13 | 344 | 3.2 | 4.8 | 0.00 | 0.00 | 0.00 | 31 | 1010.8 |
| 20260503171826 | 12 | 26 | 4.8 | 4.8 | 0.00 | 0.00 | 0.00 | 31 | 1011.1 |
| 20260503171323 | 13 | 310 | 8.0 | 8.0 | 0.00 | 0.00 | 0.00 | 31 | 1011.3 |
| 20260503170821 | 13 | 57 | 3.2 | 3.2 | 0.00 | 0.00 | 0.00 | 32 | 1011.2 |
| 20260503170317 | 13 | 25 | 4.8 | 4.8 | 0.00 | 0.00 | 0.00 | 32 | 1011.2 |
| 20260503150515 | 13 | 32 | 9.7 | 14.5 | 0.00 | 0.00 | 0.00 | 31 | 1011.4 |
| 20260503131402 | 10 | 34 | 4.8 | 11.3 | 0.00 | 0.00 | 0.00 | 44 | 1011.7 |
| 20260503130859 | 10 | 35 | 3.2 | 4.8 | 0.00 | 0.00 | 0.00 | 44 | 1011.8 |
| 20260503130356 | 10 | 122 | 6.4 | 8.0 | 0.00 | 0.00 | 0.00 | 44 | 1011.8 |
| 20260503110750 | 8 | 91 | 1.6 | 4.8 | 0.00 | 0.00 | 0.00 | 50 | 1011.0 |
| 20260503110247 | 8 | 282 | 3.2 | 4.8 | 0.00 | 0.00 | 0.00 | 50 | 1010.8 |
| 20260503100213 | 8 | 20 | 1.6 | 3.2 | 0.00 | 0.00 | 0.00 | 51 | 1010.1 |
| 20260503090137 | 8 | 33 | 4.8 | 8.0 | 0.00 | 0.00 | 0.00 | 50 | 1009.8 |
| 20260503081613 | 8 | 92 | 6.4 | 11.3 | 0.00 | 0.00 | 0.00 | 50 | 1010.0 |
| 20260503081110 | 8 | 29 | 0.0 | 3.2 | 0.00 | 0.00 | 0.00 | 50 | 1009.8 |
| 20260503080606 | 8 | 62 | 1.6 | 3.2 | 0.00 | 0.00 | 0.00 | 50 | 1009.9 |
| 20260503080103 | 8 | 36 | 4.8 | 8.0 | 0.00 | 0.00 | 0.00 | 50 | 1009.9 |
| 20260503072540 | 9 | 102 | 6.4 | 8.0 | 0.00 | 0.00 | 0.00 | 45 | 1009.8 |
| 20260503072037 | 10 | 348 | 4.8 | 4.8 | 0.00 | 0.00 | 0.00 | 45 | 1009.7 |
| 20260503071534 | 10 | 343 | 4.8 | 8.0 | 0.00 | 0.00 | 0.00 | 44 | 1009.7 |
| 20260503071031 | 10 | 317 | 8.0 | 11.3 | 0.00 | 0.00 | 0.00 | 44 | 1009.6 |
| 20260503070527 | 10 | 51 | 8.0 | 11.3 | 0.00 | 0.00 | 0.00 | 44 | 1009.8 |